Weather History for Thompson, MB

Change the Weather History Date:

Wednesday, February 6, 2013

  Actual Average Record
Temperature  
Mean Temperature -26 °F -  
Max Temperature -7 °F 9 °F 19 °F (2000)
Min Temperature -45 °F -10 °F -45 °F (2013)
Degree Days  
Heating Degree Days 91    
Moisture  
Dew Point -38 °F    
Average Humidity 65    
Maximum Humidity 82    
Minimum Humidity 41    
Precipitation  
Precipitation 0.00 in 0.02 in - ()
Sea Level Pressure  
Sea Level Pressure 30.35 in    
Wind  
Wind Speed 1 mph ()    
Max Wind Speed 4 mph    
Max Gust Speed -    
Visibility 14.2 miles    
Events      
Averages and records for this station are not official NWS values.
T = Trace of Precipitation, MM = Missing Value Source: Averaged Metar Reports

Daily Weather History Graph

Daily Weather History Graph

Search for Another Location

Airport:

Trip Planner

Search our weather history database for the weather conditions in past years. The results will help you decide how hot, cold, wet, or windy it might be!

Date:

Astronomy

Feb. 06, 2013 Rise Set
Actual Time 8:14 AM CST 5:17 PM CST
Civil Twilight 7:34 AM CST 5:57 PM CST
Nautical Twilight 6:50 AM CST 6:41 PM CST
Astronomical Twilight 6:08 AM CST 7:24 PM CST
Moon 5:22 AM CST (2/6) 1:14 PM CST (2/6)
Length of Visible Light 10h 22m
Length of Day
9h 02m
Waning Crescent, 17% of the Moon is Illuminated
Feb 6
Waning Crescent
Feb 10
New
Feb 17
First Quarter
Feb 25
Full
Mar 4
Last Quarter

Hourly Weather History & Observations

Time (CST) Temp. Windchill Dew Point Humidity Pressure Visibility Wind Dir Wind Speed Gust Speed Precip Events Conditions
12:00 AM -32 °F - -41 °F 41% 30.21 in 15 mi NE 3.5 mph - -  
12:00 AM -32.8 °F -45.3 °F -41.8 °F 62% 30.21 in 15.0 mi NE 3.5 mph - N/A   Clear
1:00 AM -36.4 °F - -41.8 °F 75% 30.23 in 15.0 mi Calm Calm - N/A   Clear
2:00 AM -40.0 °F - -43.6 °F 82% 30.24 in 15.0 mi Calm Calm - N/A   Clear
3:00 AM -40.0 °F - -45.4 °F 74% 30.25 in 15.0 mi Calm Calm - N/A   Clear
4:00 AM -41.8 °F - -47.2 °F 74% 30.27 in 15.0 mi Calm Calm - N/A   Clear
5:00 AM -41.8 °F - -47.2 °F 74% 30.29 in 15.0 mi Calm Calm - N/A   Clear
6:00 AM -43 °F - -50 °F 51% 30.30 in 15 mi Calm Calm - -  
6:00 AM -43.6 °F - -49.0 °F 74% 30.30 in 15.0 mi Calm Calm - N/A   Clear
7:00 AM -41.8 °F - -49.0 °F 67% 30.32 in 15.0 mi West 2.3 mph - N/A   Clear
8:00 AM -43.6 °F - -50.8 °F 67% 30.33 in 6.0 mi Calm Calm - N/A   Clear
9:00 AM -41.8 °F -55.6 °F -45.4 °F 82% 30.35 in 6.0 mi West 3.5 mph - N/A   Clear
10:00 AM -32.8 °F - -40.0 °F 68% 30.37 in 10.0 mi Calm Calm - N/A   Clear
11:00 AM -27.4 °F - -34.6 °F 69% 30.38 in 15.0 mi Calm Calm - N/A   Clear
12:00 PM -20 °F - -29 °F 45% 30.37 in 15 mi SW 2.3 mph - -  
12:00 PM -20.2 °F - -29.2 °F 63% 30.37 in 15.0 mi SW 2.3 mph - N/A   Clear
1:00 PM -13.0 °F - -27.4 °F 49% 30.37 in 15.0 mi WSW 2.3 mph - N/A   Clear
2:00 PM -13.0 °F -22.7 °F -25.6 °F 53% 30.38 in 15.0 mi SW 3.5 mph - N/A   Clear
3:00 PM -11.2 °F - -23.8 °F 54% 30.38 in 15.0 mi Calm Calm - N/A   Clear
4:00 PM -9.4 °F - -22.0 °F 54% 30.40 in 15.0 mi Calm Calm - N/A   Clear
5:00 PM -16.6 °F - -23.8 °F 70% 30.41 in 15.0 mi North 2.3 mph - N/A   Clear
6:00 PM -22 °F - -27 °F 64% 30.44 in 15 mi Calm Calm - -  
6:00 PM -22.0 °F - -27.4 °F 76% 30.44 in 15.0 mi Calm Calm - N/A   Clear
7:00 PM -27.4 °F - -34.6 °F 69% 30.44 in 15.0 mi Calm Calm - N/A   Clear
8:00 PM -31.0 °F - -38.2 °F 68% 30.44 in 15.0 mi Calm Calm - N/A   Clear
9:00 PM -32.8 °F - -41.8 °F 62% 30.46 in 15.0 mi Calm Calm - N/A   Clear
10:00 PM -34.6 °F - -43.6 °F 61% 30.47 in 15.0 mi Calm Calm - N/A   Clear
11:00 PM -34.6 °F - -41.8 °F 68% 30.48 in 15.0 mi Calm Calm - N/A   Clear